FW9447 Weather Reports


time (UTC)temp
F
wind
direction
speed
knots
gust
knots
rain 1hr
in
rain 24hr
in
rain mn
in
humidity
%
barometer
mb
20260507220055 54 152 5.2 8.7 0.08 0.42 0.42 98 1001.5
20260507214554 54 151 6.1 9.6 0.08 0.40 0.40 97 1001.3
20260507213053 54 148 1.7 7.0 0.09 0.38 0.38 98 1001.3
20260507211557 55 149 4.3 7.8 0.10 0.36 0.36 98 1001.4
20260507210103 55 158 3.5 7.8 0.10 0.34 0.34 98 1001.2
20260507204551 54 150 6.1 9.6 0.10 0.32 0.32 98 1001.4
20260507203101 54 170 4.3 9.6 0.10 0.29 0.29 98 1001.2
20260507201552 54 145 4.3 9.6 0.10 0.26 0.26 98 1001.4
20260507200053 54 140 4.3 13.0 0.10 0.24 0.24 98 1000.4
20260507194554 54 138 6.1 13.9 0.09 0.21 0.21 98 1000.6
20260507193049 54 140 5.2 11.3 0.10 0.19 0.19 99 1001.4
20260507191552 54 156 5.2 13.0 0.09 0.16 0.16 98 1001.9
20260507190052 54 117 7.0 13.9 0.09 0.14 0.14 98 1003.1
20260507184552 54 110 7.0 11.3 0.08 0.12 0.12 98 1003.4
20260507183055 54 131 6.1 11.3 0.07 0.09 0.09 98 1003.3
20260507181555 54 98 6.1 13.0 0.06 0.07 0.07 98 1004.1
20260507180058 55 153 7.8 14.8 0.05 0.05 0.05 98 1004.0
20260507174607 55 119 7.8 16.5 0.04 0.04 0.04 97 1004.3
20260507173054 55 158 9.6 16.5 0.02 0.02 0.02 97 1004.6
20260507171605 55 132 9.6 17.4 0.01 0.01 0.01 96 1004.5
20260507170053 56 121 11.3 25.2 0.00 0.00 0.00 94 1003.6
20260507164552 57 144 14.8 24.3 0.00 0.00 0.00 91 1003.5
20260507163100 58 148 14.8 26.9 0.00 0.00 0.00 89 1003.5
20260507161559 58 170 15.6 25.2 0.00 0.00 0.00 89 1003.9
20260507160055 59 165 14.8 29.5 0.00 0.00 0.00 88 1003.9
20260507154552 60 175 18.2 32.2 0.00 0.00 0.00 86 1004.3
20260507153101 60 158 17.4 31.3 0.00 0.00 0.00 86 1004.6
20260507151553 60 131 20.0 37.4 0.00 0.00 0.00 86 1005.0
20260507150057 60 157 17.4 31.3 0.00 0.00 0.00 86 1005.2
20260507144557 60 175 17.4 29.5 0.00 0.00 0.00 85 1005.8
20260507143054 60 152 11.3 28.7 0.00 0.00 0.00 84 1006.1
20260507141552 60 157 18.2 41.7 0.00 0.00 0.00 85 1006.2
20260507140108 60 137 13.9 27.8 0.00 0.00 0.00 86 1006.4
20260507134557 59 133 14.8 30.4 0.00 0.00 0.00 88 1006.5
20260507133104 59 119 15.6 29.5 0.00 0.00 0.00 88 1006.5
20260507131553 59 170 15.6 27.8 0.00 0.00 0.00 88 1006.8
20260507130105 59 106 18.2 30.4 0.00 0.00 0.00 87 1007.0
20260507124633 59 165 18.2 37.4 0.00 0.00 0.00 86 1007.4
20260507123053 59 127 19.1 32.2 0.00 0.00 0.00 86 1007.2
20260507121600 58 134 11.3 23.5 0.00 0.00 0.00 91 1007.8
20260507120055 57 155 13.0 23.5 0.00 0.00 0.00 92 1007.4
20260507114612 57 131 14.8 24.3 0.00 0.00 0.00 94 1007.5
20260507113058 56 148 14.8 24.3 0.00 0.00 0.00 95 1007.8
20260507111558 55 170 12.2 20.9 0.00 0.00 0.00 96 1008.3
20260507110054 55 92 11.3 19.1 0.00 0.00 0.00 95 1008.7
20260507104558 55 151 12.2 21.7 0.00 0.00 0.00 95 1008.8
20260507103054 56 161 11.3 22.6 0.00 0.00 0.00 95 1008.8
20260507101559 55 130 12.2 21.7 0.00 0.00 0.00 95 1008.9
20260507100058 55 121 10.4 22.6 0.00 0.00 0.00 95 1009.0
20260507094557 55 152 10.4 17.4 0.00 0.00 0.00 95 1009.2
20260507093056 55 108 9.6 17.4 0.00 0.00 0.00 96 1009.8
20260507091550 54 156 7.8 16.5 0.00 0.00 0.00 96 1009.6
20260507090051 54 150 7.8 15.6 0.00 0.00 0.00 96 1009.2
20260507084555 54 133 11.3 20.0 0.00 0.00 0.00 95 1010.0
20260507083056 54 120 12.2 20.0 0.00 0.00 0.00 95 1010.2
20260507081551 54 142 10.4 19.1 0.00 0.00 0.00 94 1010.4
20260507080056 54 114 11.3 17.4 0.00 0.00 0.00 94 1010.3
20260507074606 54 150 9.6 20.0 0.00 0.00 0.00 94 1010.5
20260507073054 54 154 6.1 16.5 0.00 0.00 0.00 93 1010.4
20260507071554 54 121 7.0 15.6 0.00 0.00 0.00 93 1011.1
20260507070109 54 123 9.6 15.6 0.00 0.00 0.00 93 1011.7
20260507064601 54 143 9.6 17.4 0.00 0.00 0.00 92 1012.0
20260507063058 55 125 8.7 17.4 0.00 0.00 0.00 91 1012.0
20260507061553 54 137 7.0 18.2 0.00 0.00 0.00 91 1012.0
20260507060055 54 160 5.2 13.9 0.00 0.00 0.00 89 1011.9
20260507054557 54 158 6.1 16.5 0.00 0.00 0.00 88 1011.9
20260507053059 54 165 6.1 12.2 0.00 0.00 0.00 86 1012.5
20260507051600 54 165 7.0 13.0 0.00 0.00 0.00 83 1012.9
20260507050056 54 108 7.0 12.2 0.00 0.00 0.00 84 1013.5
20260507044554 54 165 5.2 11.3 0.00 0.00 0.00 84 1014.1
20260507043054 54 136 6.1 12.2 0.00 0.00 0.00 85 1014.3
20260507041556 54 143 4.3 15.6 0.00 0.00 0.00 85 1014.5
20260507034552 54 170 5.2 11.3 0.00 0.00 0.00 87 1015.4
20260507033056 54 165 4.3 9.6 0.00 0.00 0.00 87 1015.7
20260507031604 53 151 4.3 8.7 0.00 0.00 0.00 87 1015.8
20260507030053 54 191 4.3 9.6 0.00 0.00 0.00 87 1016.1
20260507024552 54 147 6.1 10.4 0.00 0.00 0.00 86 1016.3
20260507023052 54 145 2.6 10.4 0.00 0.00 0.00 86 1016.4
20260507021553 55 155 4.3 8.7 0.00 0.00 0.00 85 1016.5
20260507020055 55 148 7.0 11.3 0.00 0.00 0.00 85 1016.6
20260507014557 55 139 7.0 13.0 0.00 0.00 0.00 84 1016.6
20260507013111 55 151 6.1 11.3 0.00 0.00 0.00 84 1016.8
20260507011552 56 142 6.1 12.2 0.00 0.00 0.00 84 1017.0
20260507004554 56 146 8.7 14.8 0.00 0.00 0.00 82 1017.3
20260507003052 57 114 7.8 17.4 0.00 0.00 0.00 81 1017.2
20260507001557 58 146 8.7 16.5 0.00 0.00 0.00 81 1017.2
20260507000055 58 158 9.6 17.4 0.00 0.00 0.00 80 1017.2
20260506234554 59 152 10.4 18.2 0.00 0.00 0.00 79 1017.2
20260506233104 60 111 8.7 18.2 0.00 0.00 0.00 78 1016.9
20260506231600 60 165 9.6 19.1 0.00 0.00 0.00 78 1016.7
20260506230104 61 108 7.8 16.5 0.00 0.00 0.00 77 1016.6
20260506224556 61 151 7.0 15.6 0.00 0.00 0.00 75 1016.3
20260506223055 62 121 8.7 16.5 0.00 0.00 0.00 74 1016.0
20260506221600 62 104 7.8 20.9 0.00 0.00 0.00 73 1016.1